Flag for U.S.A. Weather past 2 weeks in Bismarck, North Dakota, U.S.A.

Now
60 °F

Clear.


Feels Like: 60 °F
Forecast: 57 / 72 °F
Wind: 8 mph from Southeast

Location: Bismarck Municipal Airport

Current Time: Sep 23, 2014 at 1:27:33 AM

Latest Report: Sep 23, 2014 at 12:52 AM


Visibility: 10 mi

Pressure: 29.92 "Hg

Humidity: 72%

Dew point: 51 °F

Location of BismarckLocation

Historic Weather in Bismarck — Graph

°F

Bismarck temperature yesterday

Maximum temperature yesterday: 83 °F (at 2:52 PM)
Minimum temperature yesterday: 44 °F (at 1:52 AM)
Average temperature yesterday: 62 °F

Past Weeks' High & Low Weather Summary

 TemperatureHumidityPressure
High90 °F (Sep 8, 4:52 PM)100% (Sep 8, 7:54 AM)30.54 "Hg (Sep 8, 7:54 AM)
Low31 °F (Sep 15, 6:52 AM)23% (Sep 8, 4:52 PM)29.57 "Hg (Sep 19, 4:52 AM)
Average56 °F67%30.07 "Hg
* Reported Sep 7 11:52 PM — Sep 22 11:52 PM, Bismarck, Weather by CustomWeather, © 2014

Note: Actual official high and low records may vary slightly from our data, if they occured in-between our weather recording intervals... More about our weather records

Advertising

Bismarck weather history for previous 24 hours

 ConditionsComfort  
Time TempWeatherWind HumidityBarometerVisibility
11:52 PM
Sep 22
60 °FClear.9 mph69%29.93 "Hg10 mi
10:52 PM62 °FClear.10 mph65%29.93 "Hg10 mi
9:52 PM64 °FClear.9 mph61%29.94 "Hg10 mi
8:52 PM63 °FClear.10 mph58%29.96 "Hg10 mi
7:52 PM66 °FSunny.10 mph52%29.95 "Hg10 mi
6:52 PM71 °FSunny.8 mph45%29.96 "Hg10 mi
5:52 PM79 °FSunny.16 mph34%29.95 "Hg10 mi
4:52 PM83 °FSunny.15 mph30%29.95 "Hg10 mi
3:52 PM83 °FSunny.20 mph27%29.97 "Hg10 mi
2:52 PM83 °FSunny.17 mph27%29.99 "Hg10 mi
1:52 PM81 °FSunny.20 mph28%30.01 "Hg10 mi
12:52 PM78 °FSunny.17 mph31%30.04 "Hg10 mi
11:52 AM72 °FSunny.15 mph41%30.08 "Hg10 mi
10:52 AM67 °FSunny.13 mph51%30.11 "Hg10 mi
9:52 AM59 °FSunny.10 mph67%30.13 "Hg10 mi
8:52 AM51 °FSunny.7 mph83%30.14 "Hg10 mi
7:52 AM45 °FClear.7 mph90%30.17 "Hg10 mi
6:52 AM44 °FClear.8 mph89%30.16 "Hg10 mi
5:52 AM44 °FClear.3 mph89%30.17 "Hg10 mi
4:52 AM44 °FClear.3 mph89%30.18 "Hg10 mi
3:52 AM46 °FClear.3 mph86%30.19 "Hg10 mi
2:52 AM46 °FClear.5 mph86%30.19 "Hg10 mi
1:52 AM44 °FClear.5 mph93%30.20 "Hg10 mi
Weather by CustomWeather, © 2014

See weather overviewHow to use our weather pages